Simultaneous Nadir Overpasses (SNOs) Predictions

Prediction of SNOs between GOES-14 and NOAA-20 Satellite Orbit:

Table of predicted SNOs for the next 14.0 days since TLE Epoch: 8/24/2024
Index Date Time (GOES-14) GOES-14 Lat,Lon NOAA-20 Lat,Lon Distance(km) Time Diff (sec)
1 08/24/2024 20:29:19 -0.03,-108.33 0.50,-106.05 260.07 80
2 08/26/2024 08:51:04 0.03,-108.36 0.70,-111.31 336.82 80
3 08/27/2024 08:29:39 0.02,-108.35 -0.34,-106.78 178.91 80
4 08/28/2024 20:51:33 -0.01,-108.30 -0.87,-112.08 431.04 80
5 08/29/2024 20:35:27 -0.01,-108.30 0.18,-107.55 85.31 80
6 09/01/2024 08:35:47 -0.00,-108.33 -0.03,-108.28 6.05 80
7 09/03/2024 20:38:55 0.00,-108.28 -0.15,-109.05 87.07 80
8 09/04/2024 20:22:49 -0.00,-108.28 0.85,-104.51 430.01 80
9 09/06/2024 08:44:34 0.00,-108.33 0.34,-109.77 164.64 80
